Location: Lugrin
(46.4033°N, 6.6674°E)
Time: 10:20:31
(UTC+00:00)

CSL-04 Debris - Pass Details

Date: 18 September 2020
Orbit: 827 x 847 km, 98.9° (Epoch: 24 October)

Event Time Altitude Azimuth Distance (km) Brightness Sun altitude
Rises 18:15:45 0° 160° (SSE) 3,359 7.0 -7.3°
Reaches altitude 10° 18:18:05 10° 160° (SSE) 2,428 6.3 -7.7°
Maximum altitude 18:23:28 82° 74° (ENE) 842 4.2 -8.6°
Drops below altitude 10° 18:28:53 10° 347° (NNW) 2,442 7.0 -9.5°
Sets 18:31:15 0° 347° (NNW) 3,380 7.7 -9.9°
